• en France
  • Liste des pays
  • À 7 jours
  • Température de l'eau
  • Carte satellitaire
  • Carte météo
  • Widgets météo
  • user-avatar
    Se connecter

    Météo par heure à Byala

    Ce jour, 17 Janvier, Mercredi

    Heure Température Précipitation Vent Pression Humidité
    00:00 -1°C° 0 mm 4 m/s 747 mmHg 94%
    01:00 0°C° 0 mm 4 m/s 747 mmHg 94%
    02:00 0°C° 0 mm 5 m/s 746 mmHg 95%
    03:00 0°C° 0 mm 5 m/s 746 mmHg 94%
    04:00 0°C° 0 mm 5 m/s 745 mmHg 93%
    05:00 0°C° 0 mm 5 m/s 745 mmHg 92%
    06:00 0°C° 0 mm 5 m/s 745 mmHg 91%
    07:00 0°C° 0 mm 5 m/s 744 mmHg 90%
    08:00 0°C° 0 mm 5 m/s 744 mmHg 89%
    09:00 +1°C° 0 mm 5 m/s 744 mmHg 88%
    10:00 +2°C° 0 mm 5 m/s 743 mmHg 87%
    11:00 +5°C° 0 mm 5 m/s 743 mmHg 86%
    12:00 +6°C° 0 mm 5 m/s 742 mmHg 84%
    13:00 +5°C° 0 mm 6 m/s 741 mmHg 83%
    14:00 +7°C° 0 mm 6 m/s 739 mmHg 82%
    15:00 +6°C° 0 mm 7 m/s 738 mmHg 82%
    16:00 +6°C° 0 mm 8 m/s 738 mmHg 82%
    17:00 +6°C° 0 mm 8 m/s 737 mmHg 82%
    18:00 +7°C° 0,3 mm 9 m/s 736 mmHg 83%
    19:00 +7°C° 0,3 mm 9 m/s 735 mmHg 84%
    20:00 +7°C° 0,3 mm 10 m/s 733 mmHg 85%
    21:00 +7°C° 0,9 mm 10 m/s 733 mmHg 86%
    22:00 +7°C° 0,9 mm 10 m/s 732 mmHg 87%
    23:00 +7°C° 0,9 mm 10 m/s 732 mmHg 87%

    Demain, 18 Janvier, Jeudi

    Heure Température Précipitation Vent Pression Humidité
    00:00 +6°C° 0,4 mm 10 m/s 732 mmHg 84%
    01:00 +3°C° 0,4 mm 11 m/s 732 mmHg 81%
    02:00 +2°C° 0,4 mm 11 m/s 732 mmHg 78%
    03:00 0°C° 0,1 mm 12 m/s 733 mmHg 77%
    04:00 0°C° 0,1 mm 13 m/s 733 mmHg 75%
    05:00 -1°C° 0,1 mm 13 m/s 734 mmHg 74%
    06:00 -1°C° 0,2 mm 13 m/s 735 mmHg 75%
    07:00 -2°C° 0,2 mm 13 m/s 736 mmHg 75%
    08:00 -2°C° 0,2 mm 13 m/s 737 mmHg 76%
    09:00 -2°C° 0,1 mm 13 m/s 738 mmHg 74%
    10:00 -2°C° 0,1 mm 13 m/s 739 mmHg 71%
    11:00 -2°C° 0,1 mm 13 m/s 740 mmHg 69%
    12:00 -1°C° 0 mm 13 m/s 741 mmHg 67%
    13:00 -1°C° 0 mm 12 m/s 742 mmHg 64%
    14:00 0°C° 0 mm 12 m/s 742 mmHg 61%
    15:00 0°C° 0 mm 12 m/s 743 mmHg 62%
    16:00 +1°C° 0 mm 11 m/s 744 mmHg 63%
    17:00 -1°C° 0 mm 11 m/s 745 mmHg 63%
    18:00 -1°C° 0 mm 11 m/s 746 mmHg 64%
    19:00 -2°C° 0 mm 11 m/s 747 mmHg 66%
    20:00 -2°C° 0 mm 11 m/s 747 mmHg 67%
    21:00 -3°C° 0 mm 10 m/s 748 mmHg 69%
    22:00 -3°C° 0 mm 10 m/s 749 mmHg 71%
    23:00 -3°C° 0 mm 10 m/s 749 mmHg 73%

    Après-demain, 19 Janvier, Vendredi

    Heure Température Précipitation Vent Pression Humidité
    00:00 -4°C° 0 mm 8 m/s 749 mmHg 74%
    01:00 -3°C° 0 mm 7 m/s 749 mmHg 76%
    02:00 -3°C° 0 mm 6 m/s 749 mmHg 78%
    03:00 -3°C° 0 mm 6 m/s 749 mmHg 77%
    04:00 -3°C° 0 mm 6 m/s 749 mmHg 76%
    05:00 -3°C° 0 mm 6 m/s 749 mmHg 74%
    06:00 -3°C° 0 mm 6 m/s 749 mmHg 70%
    07:00 -2°C° 0 mm 7 m/s 749 mmHg 66%
    08:00 -2°C° 0 mm 7 m/s 749 mmHg 62%
    09:00 0°C° 0 mm 7 m/s 749 mmHg 57%
    10:00 +3°C° 0 mm 7 m/s 749 mmHg 52%
    11:00 +5°C° 0 mm 7 m/s 749 mmHg 47%
    12:00 +6°C° 0 mm 7 m/s 748 mmHg 47%
    13:00 +6°C° 0 mm 7 m/s 748 mmHg 46%
    14:00 +8°C° 0 mm 7 m/s 748 mmHg 46%
    15:00 +7°C° 0 mm 6 m/s 748 mmHg 51%
    16:00 +5°C° 0 mm 6 m/s 748 mmHg 56%
    17:00 +5°C° 0 mm 5 m/s 748 mmHg 60%
    18:00 +3°C° 0 mm 5 m/s 748 mmHg 60%
    19:00 +3°C° 0 mm 5 m/s 748 mmHg 60%
    20:00 +2°C° 0 mm 5 m/s 749 mmHg 60%
    21:00 +2°C° 0 mm 5 m/s 749 mmHg 61%
    22:00 +3°C° 0 mm 4 m/s 749 mmHg 62%
    23:00 +3°C° 0 mm 4 m/s 749 mmHg 63%

    20 Janvier, Samedi

    Heure Température Précipitation Vent Pression Humidité
    00:00 +3°C° 0 mm 4 m/s 748 mmHg 65%
    01:00 +3°C° 0 mm 4 m/s 748 mmHg 66%
    02:00 +3°C° 0 mm 4 m/s 748 mmHg 68%
    03:00 +1°C° 0 mm 4 m/s 748 mmHg 71%
    04:00 +1°C° 0 mm 4 m/s 748 mmHg 73%
    05:00 +1°C° 0 mm 4 m/s 748 mmHg 76%
    06:00 +1°C° 0 mm 4 m/s 747 mmHg 81%
    07:00 +1°C° 0 mm 5 m/s 747 mmHg 85%
    08:00 +2°C° 0 mm 5 m/s 747 mmHg 90%
    09:00 +4°C° 0 mm 6 m/s 747 mmHg 86%
    10:00 +6°C° 0 mm 7 m/s 746 mmHg 82%
    11:00 +9°C° 0 mm 8 m/s 746 mmHg 78%
    12:00 +10°C° 0 mm 8 m/s 745 mmHg 76%
    13:00 +10°C° 0 mm 8 m/s 745 mmHg 73%
    14:00 +11°C° 0 mm 9 m/s 744 mmHg 71%
    15:00 +11°C° 0 mm 9 m/s 744 mmHg 73%
    16:00 +10°C° 0 mm 8 m/s 743 mmHg 74%
    17:00 +10°C° 0 mm 8 m/s 743 mmHg 76%
    18:00 +10°C° 0 mm 8 m/s 743 mmHg 77%
    19:00 +10°C° 0 mm 8 m/s 743 mmHg 78%
    20:00 +8°C° 0 mm 9 m/s 743 mmHg 80%
    21:00 +10°C° 0,1 mm 9 m/s 743 mmHg 81%
    22:00 +10°C° 0,1 mm 9 m/s 742 mmHg 82%
    23:00 +9°C° 0,1 mm 10 m/s 742 mmHg 83%

    21 Janvier, Dimanche

    Heure Température Précipitation Vent Pression Humidité
    00:00 +9°C° 0,1 mm 10 m/s 742 mmHg 83%
    01:00 +8°C° 0,1 mm 10 m/s 742 mmHg 83%
    02:00 +8°C° 0,1 mm 10 m/s 741 mmHg 83%
    03:00 +6°C° 0,5 mm 9 m/s 742 mmHg 83%
    04:00 +5°C° 0,5 mm 8 m/s 742 mmHg 84%
    05:00 +3°C° 0,5 mm 7 m/s 742 mmHg 84%
    06:00 +1°C° 0 mm 8 m/s 743 mmHg 82%
    07:00 +1°C° 0 mm 8 m/s 744 mmHg 79%
    08:00 0°C° 0 mm 8 m/s 745 mmHg 76%
    09:00 +1°C° 0 mm 8 m/s 746 mmHg 73%
    10:00 +1°C° 0 mm 8 m/s 747 mmHg 70%
    11:00 +2°C° 0 mm 7 m/s 747 mmHg 67%
    12:00 +2°C° 0 mm 7 m/s 747 mmHg 66%
    13:00 +2°C° 0 mm 7 m/s 748 mmHg 66%
    14:00 +3°C° 0 mm 6 m/s 748 mmHg 66%
    15:00 +2°C° 0 mm 6 m/s 748 mmHg 68%
    16:00 +2°C° 0 mm 5 m/s 749 mmHg 71%
    17:00 +1°C° 0 mm 5 m/s 749 mmHg 73%
    18:00 +1°C° 0 mm 5 m/s 749 mmHg 75%
    19:00 +1°C° 0 mm 6 m/s 750 mmHg 77%
    20:00 -1°C° 0 mm 6 m/s 750 mmHg 79%
    21:00 -1°C° 0 mm 6 m/s 750 mmHg 78%
    22:00 -1°C° 0 mm 7 m/s 750 mmHg 78%
    23:00 -2°C° 0 mm 7 m/s 750 mmHg 78%

    22 Janvier, Lundi

    Heure Température Précipitation Vent Pression Humidité
    00:00 -2°C° 0,1 mm 8 m/s 750 mmHg 77%
    01:00 -2°C° 0,1 mm 8 m/s 750 mmHg 75%
    02:00 -3°C° 0,1 mm 9 m/s 750 mmHg 74%
    03:00 -3°C° 0,1 mm 9 m/s 750 mmHg 73%
    04:00 -4°C° 0,1 mm 9 m/s 750 mmHg 73%
    05:00 -4°C° 0,1 mm 9 m/s 750 mmHg 72%
    06:00 -4°C° 0 mm 9 m/s 750 mmHg 71%
    07:00 -4°C° 0 mm 9 m/s 751 mmHg 70%
    08:00 -4°C° 0 mm 9 m/s 751 mmHg 69%
    09:00 -4°C° 0 mm 9 m/s 751 mmHg 65%
    10:00 -4°C° 0 mm 9 m/s 752 mmHg 62%
    11:00 -3°C° 0 mm 9 m/s 752 mmHg 59%
    12:00 -3°C° 0 mm 9 m/s 752 mmHg 59%
    13:00 -1°C° 0 mm 9 m/s 752 mmHg 59%
    14:00 -1°C° 0 mm 9 m/s 752 mmHg 59%
    15:00 -3°C° 0 mm 9 m/s 752 mmHg 63%
    16:00 -3°C° 0 mm 9 m/s 753 mmHg 66%
    17:00 -3°C° 0 mm 9 m/s 753 mmHg 69%
    18:00 -4°C° 0 mm 9 m/s 754 mmHg 72%
    19:00 -5°C° 0 mm 9 m/s 754 mmHg 75%
    20:00 -5°C° 0 mm 9 m/s 754 mmHg 79%
    21:00 -5°C° 0 mm 9 m/s 754 mmHg 79%
    22:00 -5°C° 0 mm 9 m/s 755 mmHg 79%
    23:00 -5°C° 0 mm 9 m/s 755 mmHg 79%
    Voir plus